Location: Unspecified
(0.0000°N, 0.0000°E)
Time: 18:13:36
(UTC+00:00)

A-11 Canister half - All Passes

Search period start: 18 January 2020 00:00
Search period end: 28 January 2020 00:00
Orbit: 1525 x 1684 km, 47.3° (Epoch: 17 January)

Date Brightness Start Highest point End Pass type
(mag) Time Alt. Az. Time Alt. Az. Time Alt. Az.
18 Jan - 03:37:32 10° NNW 03:47:18 53° NE 03:57:03 10° SE visible
18 Jan - 05:43:23 10° WNW 05:52:18 35° SW 06:01:12 10° SSE visible
18 Jan - 14:27:25 10° S 14:33:55 21° SE 14:40:20 10° E daylight
18 Jan - 16:29:35 10° SW 16:38:53 77° NW 16:48:13 10° NE daylight
18 Jan - 18:40:08 10° WNW 18:44:10 13° NW 18:48:15 10° NNW visible
19 Jan - 03:15:59 10° NNW 03:25:38 49° NE 03:35:17 10° ESE visible
19 Jan - 05:21:31 10° WNW 05:30:37 38° SW 05:39:43 10° SSE visible
19 Jan - 14:06:07 10° S 14:12:14 19° SE 14:18:18 10° E daylight
19 Jan - 16:07:56 10° SW 16:17:16 82° NW 16:26:37 10° NE daylight
19 Jan - 18:17:48 10° WNW 18:22:28 15° NW 18:27:12 10° NNW daylight
20 Jan - 02:54:26 10° NNW 03:03:57 46° NE 03:13:29 10° ESE visible
20 Jan - 04:59:40 10° WNW 05:08:56 41° SW 05:18:13 10° SSE visible
20 Jan - 13:44:52 10° S 13:50:34 17° SE 13:56:12 10° E daylight
20 Jan - 15:46:18 10° SW 15:55:40 88° NW 16:05:00 10° NE daylight
20 Jan - 17:55:35 10° W 18:00:47 16° NW 18:06:03 10° N daylight
21 Jan - 02:32:55 10° NNW 02:42:17 43° NE 02:51:41 10° ESE visible
21 Jan - 04:37:51 10° WNW 04:47:16 44° SW 04:56:42 10° SSE visible
21 Jan - 13:23:39 10° S 13:28:53 16° SE 13:34:03 10° E daylight
21 Jan - 15:24:41 10° SW 15:34:03 87° SE 15:43:22 10° NE daylight
21 Jan - 17:33:26 10° W 17:39:06 18° NW 17:44:50 10° N daylight
22 Jan - 02:11:25 10° NNW 02:20:36 40° NE 02:29:51 10° ESE visible
22 Jan - 04:16:03 10° WNW 04:25:35 47° SW 04:35:10 10° SSE visible
22 Jan - 13:02:30 10° SSE 13:07:12 15° SE 13:11:49 10° ESE daylight
22 Jan - 15:03:04 10° SW 15:12:26 82° SE 15:21:44 10° NE daylight
22 Jan - 17:11:21 10° W 17:17:25 19° NW 17:23:34 10° N daylight
23 Jan - 01:49:55 10° NNW 01:58:56 37° NE 02:08:00 10° ESE visible
23 Jan - 03:54:16 10° WNW 04:03:55 50° SW 04:13:37 10° SSE visible
23 Jan - 12:41:27 10° SSE 12:45:30 13° SE 12:49:29 10° ESE daylight
23 Jan - 14:41:27 10° SW 14:50:50 77° SE 15:00:05 10° NE daylight
23 Jan - 16:49:18 10° W 16:55:46 21° NW 17:02:16 10° N daylight
24 Jan - 01:28:26 10° NNW 01:37:15 35° NE 01:46:08 10° ESE visible
24 Jan - 03:32:30 10° NW 03:42:15 54° SW 03:52:04 10° SSE visible
24 Jan - 12:20:34 10° SSE 12:23:47 12° SE 12:26:58 10° ESE daylight
24 Jan - 14:19:51 10° SSW 14:29:12 72° SE 14:38:26 10° NE daylight
24 Jan - 16:27:18 10° W 16:34:06 23° NW 16:40:56 10° N daylight
25 Jan - 01:06:58 10° N 01:15:34 32° NE 01:24:14 10° ESE visible
25 Jan - 03:10:45 10° NW 03:20:35 57° SW 03:30:30 10° SSE visible
25 Jan - 12:00:02 10° SSE 12:02:04 11° SE 12:04:06 10° ESE daylight
25 Jan - 13:58:16 10° SSW 14:07:35 67° SE 14:16:46 10° NE daylight
25 Jan - 16:05:20 10° W 16:12:27 24° NW 16:19:35 10° N daylight
26 Jan - 00:45:33 10° N 00:53:53 30° NE 01:02:19 10° ESE visible
26 Jan - 02:49:01 10° NW 02:58:54 61° SW 03:08:55 10° SSE visible
26 Jan - 05:03:08 10° SW 05:04:44 10° SW 05:06:21 10° SW visible
26 Jan - 13:36:41 10° SSW 13:45:58 62° SE 13:55:05 10° NE daylight
26 Jan - 15:43:24 10° WSW 15:50:47 26° NW 15:58:12 10° N daylight
27 Jan - 00:24:07 10° N 00:32:12 28° NE 00:40:22 10° ESE visible
27 Jan - 02:27:18 10° NW 02:37:14 66° SW 02:47:19 10° SSE visible
27 Jan - 04:39:50 10° WSW 04:42:58 12° SW 04:46:07 10° SSW visible
27 Jan - 13:15:07 10° SSW 13:24:21 58° SE 13:33:24 10° NE daylight
27 Jan - 15:21:30 10° WSW 15:29:08 29° NW 15:36:48 10° N daylight
